Milton, FL

6:10 AM CDT on September 26, 2017 (GMT -0500)
Whiting Field Naval Air Station (South)

Weather History for KNDZ - September, 2013

Change the Weather History Date:

Monday, September 9, 2013

  Actual Average (KNSE) Record (KNSE)
Temperature  
Mean Temperature 80 °F -  
Max Temperature 91 °F 85 °F 93 °F (2010)
Min Temperature 70 °F 68 °F 57 °F (2011)
Cooling Degree Days 16    
Growing Degree Days 30 (Base 50)    
Moisture  
Dew Point 69 °F    
Average Humidity 71    
Maximum Humidity 93    
Minimum Humidity 44    
Precipitation  
Precipitation 0.00 in - - ()
Sea Level Pressure  
Sea Level Pressure 29.98 in    
Wind  
Wind Speed 2 mph (ESE)    
Max Wind Speed 12 mph    
Max Gust Speed -    
Visibility 10 miles    
Events      
Averages and records for this station are not official NWS values.
T = Trace of Precipitation, MM = Missing Value Source: NWS Daily Summary

Daily Weather History Graph

Daily Weather History Graph

Search for Another Location

Airport or City:

Trip Planner

Search our weather history database for the weather conditions in past years. The results will help you decide how hot, cold, wet, or windy it might be!

Date:

Astronomy

Sep. 09, 2013 Rise Set
Actual Time 6:29 AM CDT 7:00 PM CDT
Civil Twilight 6:04 AM CDT 7:25 PM CDT
Nautical Twilight 5:36 AM CDT 7:53 PM CDT
Astronomical Twilight 5:07 AM CDT 8:22 PM CDT
Moon 10:29 AM CDT (9/9) 9:39 PM CDT (9/9)
Length of Visible Light 13h 20m
Length of Day
12h 31m
Waxing Crescent, 19% of the Moon is Illuminated
Sep 9
Waxing Crescent
Sep 12
First Quarter
Sep 19
Full
Sep 26
Last Quarter
Oct 4
New

Hourly Weather History & Observations

Time (CDT) Temp. Heat Index Dew Point Humidity Pressure Visibility Wind Dir Wind Speed Gust Speed Precip Events Conditions
12:56 AM 73.0 °F - 69.1 °F 87% 29.94 in 10.0 mi Calm Calm - N/A   Clear
1:56 AM 72.0 °F - 69.1 °F 91% 29.93 in 10.0 mi Calm Calm - N/A   Clear
2:56 AM 70.0 °F - 66.9 °F 90% 29.93 in 10.0 mi NW 3.5 mph - N/A   Clear
3:56 AM 70.0 °F - 68.0 °F 93% 29.94 in 8.0 mi Calm Calm - N/A   Clear
4:56 AM 71.1 °F - 68.0 °F 90% 29.95 in 8.0 mi Calm Calm - N/A   Clear
5:56 AM 71.1 °F - 68.0 °F 90% 29.97 in 10.0 mi Calm Calm - N/A   Clear
6:56 AM 70.0 °F - 66.9 °F 90% 29.98 in 5.0 mi Calm Calm - N/A   Partly Cloudy
7:56 AM 73.9 °F - 71.1 °F 91% 29.99 in 10.0 mi Calm Calm - N/A   Clear
8:56 AM 81.0 °F 85.8 °F 73.0 °F 77% 30.01 in 10.0 mi North 8.1 mph - N/A   Clear
9:56 AM 84.9 °F 91.4 °F 73.0 °F 67% 30.02 in 10.0 mi North 4.6 mph - N/A   Clear
10:56 AM 88.0 °F 93.8 °F 71.1 °F 57% 30.01 in 10.0 mi ENE 3.5 mph - N/A   Clear
11:56 AM 90.0 °F 94.5 °F 69.1 °F 50% 30.00 in 10.0 mi ESE 6.9 mph - N/A   Partly Cloudy
12:56 PM 91.9 °F 95.9 °F 68.0 °F 45% 29.99 in 10.0 mi ENE 5.8 mph - N/A   Scattered Clouds
1:56 PM 91.0 °F 93.8 °F 66.0 °F 44% 29.98 in 10.0 mi Calm Calm - N/A   Scattered Clouds
2:56 PM 90.0 °F 93.6 °F 68.0 °F 48% 29.97 in 10.0 mi Calm Calm - N/A   Scattered Clouds
3:56 PM 90.0 °F 94.5 °F 69.1 °F 50% 29.96 in 10.0 mi South 9.2 mph - N/A   Scattered Clouds
4:56 PM 88.0 °F 90.7 °F 66.9 °F 49% 29.96 in 10.0 mi South 11.5 mph - N/A   Scattered Clouds
5:56 PM 86.0 °F 90.1 °F 69.1 °F 57% 29.96 in 10.0 mi South 4.6 mph - N/A   Scattered Clouds
6:56 PM 82.9 °F 87.0 °F 70.0 °F 65% 29.96 in 10.0 mi Calm Calm - N/A   Scattered Clouds
7:56 PM 81.0 °F 84.1 °F 69.1 °F 67% 29.97 in 10.0 mi SSW 3.5 mph - N/A   Scattered Clouds
8:56 PM 78.1 °F - 70.0 °F 76% 29.99 in 10.0 mi Calm Calm - N/A   Scattered Clouds
9:56 PM 75.0 °F - 69.1 °F 82% 30.01 in 10.0 mi Calm Calm - N/A   Mostly Cloudy
10:56 PM 77.0 °F - 70.0 °F 79% 30.01 in 10.0 mi Calm Calm - N/A   Mostly Cloudy
11:56 PM 77.0 °F - 70.0 °F 79% 30.02 in 10.0 mi East 8.1 mph - N/A   Mostly Cloudy